• In Czech Republic
  • List of Countries
  • For 7 days
  • Water Temperature
  • Satellite Maps
  • Weather Map
  • Weather Widgets
  • user-avatar
    Login

    Hourly Weather Elbasan

    Today, 27 July, Thursday

    Time Temperature Precipitation Wind Pressure Humidity
    00:00 +19°C° 0 mm 1 mps 729 mmHg 85%
    01:00 +19°C° 0 mm 1 mps 729 mmHg 87%
    02:00 +18°C° 0 mm 1 mps 729 mmHg 87%
    03:00 +18°C° 0 mm 1 mps 729 mmHg 88%
    04:00 +18°C° 0 mm 1 mps 729 mmHg 88%
    05:00 +19°C° 0 mm 1 mps 729 mmHg 82%
    06:00 +21°C° 0 mm 1 mps 729 mmHg 75%
    07:00 +23°C° 0 mm 1 mps 730 mmHg 68%
    08:00 +24°C° 0 mm 2 mps 730 mmHg 60%
    09:00 +26°C° 0 mm 3 mps 730 mmHg 52%
    10:00 +27°C° 0 mm 3 mps 730 mmHg 44%
    11:00 +28°C° 0.1 mm 4 mps 730 mmHg 42%
    12:00 +28°C° 0.1 mm 5 mps 730 mmHg 41%
    13:00 +29°C° 0.1 mm 5 mps 730 mmHg 40%
    14:00 +28°C° 0.1 mm 5 mps 730 mmHg 42%
    15:00 +28°C° 0.1 mm 5 mps 730 mmHg 44%
    16:00 +27°C° 0.1 mm 5 mps 730 mmHg 46%
    17:00 +26°C° 0.1 mm 4 mps 730 mmHg 53%
    18:00 +24°C° 0.1 mm 3 mps 730 mmHg 61%
    19:00 +21°C° 0.1 mm 2 mps 730 mmHg 68%
    20:00 +20°C° 0 mm 2 mps 731 mmHg 72%
    21:00 +20°C° 0 mm 1 mps 731 mmHg 75%
    22:00 +19°C° 0 mm 1 mps 732 mmHg 79%
    23:00 +19°C° 0 mm 1 mps 732 mmHg 79%

    Tomorrow, 28 July, Friday

    Time Temperature Precipitation Wind Pressure Humidity
    00:00 +19°C° 0 mm 1 mps 732 mmHg 78%
    01:00 +19°C° 0 mm 1 mps 732 mmHg 78%
    02:00 +18°C° 0 mm 1 mps 732 mmHg 78%
    03:00 +18°C° 0 mm 1 mps 732 mmHg 78%
    04:00 +18°C° 0 mm 1 mps 732 mmHg 78%
    05:00 +20°C° 0 mm 1 mps 733 mmHg 73%
    06:00 +22°C° 0 mm 1 mps 733 mmHg 67%
    07:00 +24°C° 0 mm 1 mps 733 mmHg 61%
    08:00 +25°C° 0 mm 2 mps 733 mmHg 53%
    09:00 +27°C° 0 mm 2 mps 734 mmHg 45%
    10:00 +29°C° 0 mm 3 mps 734 mmHg 37%
    11:00 +30°C° 0 mm 3 mps 734 mmHg 35%
    12:00 +32°C° 0 mm 4 mps 734 mmHg 33%
    13:00 +33°C° 0 mm 4 mps 734 mmHg 31%
    14:00 +32°C° 0 mm 4 mps 734 mmHg 33%
    15:00 +32°C° 0 mm 4 mps 734 mmHg 34%
    16:00 +32°C° 0 mm 4 mps 734 mmHg 35%
    17:00 +28°C° 0 mm 3 mps 734 mmHg 42%
    18:00 +26°C° 0 mm 2 mps 734 mmHg 49%
    19:00 +24°C° 0 mm 1 mps 734 mmHg 57%
    20:00 +23°C° 0 mm 1 mps 735 mmHg 59%
    21:00 +22°C° 0 mm 1 mps 735 mmHg 61%
    22:00 +22°C° 0 mm 1 mps 736 mmHg 63%
    23:00 +21°C° 0 mm 1 mps 736 mmHg 63%

    Day after tomorrow, 29 July, Saturday

    Time Temperature Precipitation Wind Pressure Humidity
    00:00 +21°C° 0 mm 1 mps 736 mmHg 63%
    01:00 +21°C° 0 mm 1 mps 736 mmHg 63%
    02:00 +21°C° 0 mm 1 mps 736 mmHg 63%
    03:00 +21°C° 0 mm 1 mps 736 mmHg 64%
    04:00 +20°C° 0 mm 2 mps 736 mmHg 65%
    05:00 +23°C° 0 mm 2 mps 737 mmHg 60%
    06:00 +25°C° 0 mm 2 mps 737 mmHg 55%
    07:00 +27°C° 0 mm 2 mps 737 mmHg 51%
    08:00 +29°C° 0 mm 2 mps 738 mmHg 45%
    09:00 +31°C° 0 mm 2 mps 738 mmHg 40%
    10:00 +34°C° 0 mm 2 mps 738 mmHg 34%
    11:00 +35°C° 0 mm 2 mps 738 mmHg 32%
    12:00 +36°C° 0 mm 2 mps 738 mmHg 30%
    13:00 +37°C° 0 mm 3 mps 737 mmHg 27%
    14:00 +36°C° 0 mm 3 mps 737 mmHg 28%
    15:00 +36°C° 0 mm 3 mps 737 mmHg 29%
    16:00 +36°C° 0 mm 3 mps 737 mmHg 30%
    17:00 +32°C° 0 mm 2 mps 737 mmHg 36%
    18:00 +30°C° 0 mm 2 mps 737 mmHg 43%
    19:00 +27°C° 0 mm 1 mps 737 mmHg 50%
    20:00 +26°C° 0 mm 1 mps 737 mmHg 51%
    21:00 +26°C° 0 mm 1 mps 738 mmHg 53%
    22:00 +25°C° 0 mm 1 mps 738 mmHg 54%
    23:00 +25°C° 0 mm 1 mps 738 mmHg 54%

    30 July, Sunday

    Time Temperature Precipitation Wind Pressure Humidity
    00:00 +24°C° 0 mm 1 mps 738 mmHg 53%
    01:00 +24°C° 0 mm 1 mps 738 mmHg 52%
    02:00 +24°C° 0 mm 1 mps 738 mmHg 52%
    03:00 +24°C° 0 mm 1 mps 737 mmHg 51%
    04:00 +23°C° 0 mm 1 mps 737 mmHg 51%
    05:00 +25°C° 0 mm 1 mps 738 mmHg 48%
    06:00 +27°C° 0 mm 1 mps 738 mmHg 45%
    07:00 +29°C° 0 mm 1 mps 738 mmHg 42%
    08:00 +31°C° 0 mm 1 mps 738 mmHg 37%
    09:00 +33°C° 0 mm 1 mps 738 mmHg 33%
    10:00 +35°C° 0 mm 1 mps 738 mmHg 29%
    11:00 +37°C° 0 mm 2 mps 737 mmHg 28%
    12:00 +37°C° 0 mm 2 mps 737 mmHg 27%
    13:00 +38°C° 0 mm 3 mps 737 mmHg 26%
    14:00 +37°C° 0 mm 3 mps 737 mmHg 28%
    15:00 +37°C° 0 mm 3 mps 736 mmHg 29%
    16:00 +36°C° 0 mm 3 mps 736 mmHg 31%
    17:00 +34°C° 0 mm 2 mps 736 mmHg 37%
    18:00 +30°C° 0 mm 2 mps 736 mmHg 43%
    19:00 +28°C° 0 mm 1 mps 736 mmHg 49%
    20:00 +27°C° 0 mm 1 mps 736 mmHg 51%
    21:00 +26°C° 0 mm 1 mps 736 mmHg 53%
    22:00 +26°C° 0 mm 1 mps 736 mmHg 55%
    23:00 +25°C° 0 mm 1 mps 736 mmHg 56%

    31 July, Monday

    Time Temperature Precipitation Wind Pressure Humidity
    00:00 +25°C° 0 mm 1 mps 736 mmHg 57%
    01:00 +25°C° 0 mm 1 mps 736 mmHg 57%
    02:00 +24°C° 0 mm 1 mps 736 mmHg 58%
    03:00 +24°C° 0 mm 1 mps 736 mmHg 59%
    04:00 +24°C° 0 mm 1 mps 736 mmHg 59%
    05:00 +26°C° 0 mm 1 mps 736 mmHg 55%
    06:00 +28°C° 0 mm 1 mps 736 mmHg 50%
    07:00 +30°C° 0 mm 1 mps 736 mmHg 46%
    08:00 +32°C° 0 mm 1 mps 736 mmHg 41%
    09:00 +35°C° 0 mm 2 mps 736 mmHg 37%
    10:00 +36°C° 0 mm 2 mps 736 mmHg 32%
    11:00 +37°C° 0 mm 2 mps 736 mmHg 30%
    12:00 +38°C° 0 mm 3 mps 735 mmHg 29%
    13:00 +40°C° 0 mm 4 mps 735 mmHg 27%
    14:00 +38°C° 0 mm 4 mps 735 mmHg 28%
    15:00 +38°C° 0 mm 4 mps 735 mmHg 29%
    16:00 +37°C° 0 mm 3 mps 734 mmHg 31%
    17:00 +35°C° 0 mm 3 mps 734 mmHg 36%
    18:00 +31°C° 0 mm 2 mps 734 mmHg 42%
    19:00 +29°C° 0 mm 1 mps 734 mmHg 48%
    20:00 +28°C° 0 mm 1 mps 735 mmHg 49%
    21:00 +27°C° 0 mm 1 mps 735 mmHg 50%
    22:00 +27°C° 0 mm 1 mps 735 mmHg 52%
    23:00 +26°C° 0 mm 1 mps 735 mmHg 53%

    1 August, Tuesday

    Time Temperature Precipitation Wind Pressure Humidity
    00:00 +26°C° 0 mm 1 mps 735 mmHg 53%
    01:00 +26°C° 0 mm 2 mps 735 mmHg 54%
    02:00 +25°C° 0 mm 2 mps 735 mmHg 56%
    03:00 +25°C° 0 mm 2 mps 735 mmHg 58%
    04:00 +24°C° 0 mm 2 mps 735 mmHg 60%
    05:00 +26°C° 0 mm 2 mps 735 mmHg 56%
    06:00 +28°C° 0 mm 2 mps 735 mmHg 53%
    07:00 +29°C° 0 mm 2 mps 736 mmHg 49%
    08:00 +32°C° 0 mm 1 mps 736 mmHg 44%
    09:00 +34°C° 0 mm 1 mps 736 mmHg 38%
    10:00 +36°C° 0 mm 1 mps 736 mmHg 33%
    11:00 +37°C° 0 mm 2 mps 735 mmHg 30%
    12:00 +38°C° 0 mm 2 mps 735 mmHg 28%
    13:00 +39°C° 0 mm 3 mps 735 mmHg 26%
    14:00 +39°C° 0 mm 3 mps 735 mmHg 27%
    15:00 +38°C° 0 mm 3 mps 734 mmHg 27%
    16:00 +38°C° 0 mm 3 mps 734 mmHg 28%
    17:00 +35°C° 0 mm 2 mps 734 mmHg 34%
    18:00 +31°C° 0 mm 2 mps 734 mmHg 40%
    19:00 +29°C° 0 mm 1 mps 734 mmHg 47%
    20:00 +28°C° 0 mm 1 mps 734 mmHg 48%
    21:00 +27°C° 0 mm 1 mps 735 mmHg 50%
    22:00 +26°C° 0 mm 1 mps 735 mmHg 51%
    23:00 +26°C° 0 mm 1 mps 735 mmHg 52%
    Show more